CEB823 WBKK-RPVM

Flight info

Callsign CEB823
Flight time 1h 30m
Altitude 35000
Route ANLOD2L ANLOD A341 ZAM G578 ALDIN ALDIN3P
Aircraft A320/M-SDE3FGHIRWY/LB1

Departure

Time 2026-05-08 04:10
Airport Kota Kinabalu International Airport (WBKK)

Arrival

Time 2026-05-08 05:40
Airport Mactan Cebu International Airport (RPVM)
Time Latitude Longitude Altitude Speed Heading
2026-05-08 03:37 5.92209 116.05004 29 ft 0 kts 68°
2026-05-08 03:57 5.92204 116.04991 29 ft 4 kts 68°
2026-05-08 03:58 5.92194 116.04967 29 ft 4 kts 68°
2026-05-08 03:58 5.92183 116.04944 29 ft 4 kts 51°
2026-05-08 03:58 5.92164 116.04929 29 ft 4 kts
2026-05-08 03:58 5.92149 116.04930 29 ft 1 kts 338°
2026-05-08 03:59 5.92147 116.04931 29 ft 0 kts 338°
2026-05-08 04:03 5.92151 116.04929 29 ft 3 kts 338°
2026-05-08 04:03 5.92284 116.04875 29 ft 15 kts 338°
2026-05-08 04:03 5.92384 116.04828 29 ft 16 kts 317°
2026-05-08 04:04 5.92478 116.04777 29 ft 17 kts 13°
2026-05-08 04:04 5.92595 116.04827 29 ft 19 kts 23°
2026-05-08 04:04 5.92724 116.04881 29 ft 21 kts 22°
2026-05-08 04:04 5.92863 116.04941 29 ft 23 kts 25°
2026-05-08 04:05 5.93013 116.05005 29 ft 24 kts 22°
2026-05-08 04:05 5.93172 116.05069 29 ft 26 kts 21°
2026-05-08 04:05 5.93340 116.05140 29 ft 27 kts 24°
2026-05-08 04:05 5.93515 116.05216 29 ft 28 kts 22°
2026-05-08 04:06 5.93698 116.05293 29 ft 29 kts 23°
2026-05-08 04:06 5.93886 116.05373 29 ft 30 kts 23°
2026-05-08 04:06 5.94081 116.05455 29 ft 31 kts 22°
2026-05-08 04:06 5.94280 116.05539 29 ft 31 kts 23°
2026-05-08 04:07 5.94482 116.05625 29 ft 32 kts 22°
2026-05-08 04:07 5.94688 116.05712 29 ft 32 kts 22°
2026-05-08 04:07 5.94843 116.05777 29 ft 17 kts 18°
2026-05-08 04:07 5.94931 116.05714 29 ft 18 kts 292°
2026-05-08 04:08 5.94890 116.05610 29 ft 19 kts 210°
2026-05-08 04:08 5.94765 116.05558 29 ft 19 kts 203°
2026-05-08 04:08 5.94755 116.05553 29 ft 0 kts 203°
2026-05-08 04:09 5.94674 116.05518 29 ft 39 kts 204°
2026-05-08 04:09 5.94171 116.05299 29 ft 115 kts 202°
2026-05-08 04:09 5.93261 116.04922 29 ft 166 kts 202°
2026-05-08 04:10 5.92095 116.04423 264 ft 192 kts 204°
2026-05-08 04:10 5.90824 116.03895 879 ft 199 kts 204°
2026-05-08 04:10 5.89562 116.03352 1726 ft 197 kts 204°
2026-05-08 04:10 5.88274 116.02792 2245 ft 209 kts 204°
2026-05-08 04:11 5.86900 116.02192 2779 ft 219 kts 204°
2026-05-08 04:11 5.85591 116.01352 3302 ft 236 kts 231°
2026-05-08 04:11 5.84973 115.99776 3679 ft 258 kts 269°
2026-05-08 04:11 5.85459 115.98016 4286 ft 271 kts 303°
2026-05-08 04:12 5.86671 115.96548 5084 ft 276 kts 316°
2026-05-08 04:12 5.88107 115.95250 5909 ft 280 kts 321°
2026-05-08 04:12 5.89597 115.94002 6704 ft 284 kts 321°
2026-05-08 04:12 5.91116 115.92710 7499 ft 288 kts 320°
2026-05-08 04:13 5.92627 115.91362 8307 ft 292 kts 319°
2026-05-08 04:13 5.94241 115.90113 9088 ft 295 kts 335°
2026-05-08 04:13 5.96214 115.89609 9840 ft 295 kts
2026-05-08 04:13 5.98234 115.90024 10318 ft 307 kts 27°
2026-05-08 04:14 5.99962 115.91377 10522 ft 328 kts 46°
2026-05-08 04:14 6.01574 115.93078 10916 ft 342 kts 48°
2026-05-08 04:14 6.02955 115.95034 11521 ft 347 kts 64°
2026-05-08 04:14 6.03687 115.97350 12172 ft 351 kts 81°
2026-05-08 04:15 6.03686 115.99806 12825 ft 355 kts 99°
2026-05-08 04:15 6.02919 116.02172 13462 ft 360 kts 116°
2026-05-08 04:15 6.01690 116.04376 14067 ft 363 kts 118°
2026-05-08 04:15 6.00426 116.06587 14662 ft 366 kts 119°
2026-05-08 04:16 5.99145 116.08809 15244 ft 369 kts 119°
2026-05-08 04:16 5.97855 116.11041 15821 ft 372 kts 119°
2026-05-08 04:16 5.96554 116.13298 16392 ft 375 kts 118°
2026-05-08 04:16 5.95247 116.15574 16949 ft 378 kts 118°
2026-05-08 04:17 5.93942 116.17874 17505 ft 380 kts 116°
2026-05-08 04:17 5.92933 116.20334 18027 ft 381 kts 105°
2026-05-08 04:17 5.92424 116.22951 18479 ft 383 kts 94°
2026-05-08 04:17 5.92279 116.25628 18923 ft 385 kts 92°
2026-05-08 04:18 5.92144 116.28328 19383 ft 388 kts 92°
2026-05-08 04:18 5.92003 116.31045 19811 ft 391 kts 92°
2026-05-08 04:18 5.91856 116.33787 20249 ft 394 kts 92°
2026-05-08 04:18 5.91707 116.36546 20687 ft 397 kts 92°
2026-05-08 04:19 5.91559 116.39289 21099 ft 400 kts 92°
2026-05-08 04:19 5.91408 116.42091 21530 ft 403 kts 92°
2026-05-08 04:19 5.91254 116.44907 21937 ft 406 kts 92°
2026-05-08 04:19 5.91100 116.47748 22331 ft 409 kts 92°
2026-05-08 04:20 5.90946 116.50604 22723 ft 411 kts 92°
2026-05-08 04:20 5.90794 116.53483 23117 ft 414 kts 92°
2026-05-08 04:20 5.90640 116.56382 23491 ft 417 kts 92°
2026-05-08 04:20 5.90483 116.59299 23816 ft 419 kts 92°
2026-05-08 04:21 5.90325 116.62234 24132 ft 422 kts 92°
2026-05-08 04:21 5.90165 116.65185 24451 ft 424 kts 92°
2026-05-08 04:21 5.90003 116.68152 24769 ft 426 kts 92°
2026-05-08 04:21 5.89856 116.71133 25082 ft 429 kts 91°
2026-05-08 04:22 5.89807 116.74133 25388 ft 431 kts 89°
2026-05-08 04:22 5.89843 116.77148 25697 ft 433 kts 88°
2026-05-08 04:22 5.89923 116.80176 26001 ft 435 kts 87°
2026-05-08 04:22 5.90014 116.83212 26297 ft 437 kts 87°
2026-05-08 04:23 5.90097 116.86271 26588 ft 439 kts 88°
2026-05-08 04:23 5.90164 116.89345 26877 ft 442 kts 88°
2026-05-08 04:23 5.90215 116.92437 27162 ft 444 kts 88°
2026-05-08 04:23 5.90254 116.95546 27442 ft 446 kts 88°
2026-05-08 04:24 5.90288 116.98671 27728 ft 449 kts 88°
2026-05-08 04:24 5.90322 117.01812 28004 ft 451 kts 88°
2026-05-08 04:24 5.90357 117.04968 28273 ft 453 kts 88°
2026-05-08 04:24 5.90385 117.08142 28545 ft 455 kts 89°
2026-05-08 04:25 5.90395 117.11331 28805 ft 458 kts 89°
2026-05-08 04:25 5.90392 117.14535 29060 ft 460 kts 89°
2026-05-08 04:25 5.90385 117.17754 29314 ft 462 kts 89°
2026-05-08 04:25 5.90380 117.20945 29560 ft 464 kts 89°
2026-05-08 04:26 5.90378 117.24238 29804 ft 466 kts 89°
2026-05-08 04:26 5.90380 117.27458 30017 ft 468 kts 89°
2026-05-08 04:26 5.90383 117.30778 30235 ft 470 kts 89°
2026-05-08 04:26 5.90385 117.34023 30452 ft 472 kts 89°
2026-05-08 04:27 5.90387 117.37359 30667 ft 473 kts 89°
2026-05-08 04:27 5.90389 117.40663 30952 ft 473 kts 89°
2026-05-08 04:27 5.90391 117.43915 31279 ft 471 kts 89°
2026-05-08 04:27 5.90394 117.47205 31591 ft 471 kts 89°
2026-05-08 04:28 5.90397 117.50499 31883 ft 470 kts 89°
2026-05-08 04:28 5.90400 117.53785 32180 ft 470 kts 90°
2026-05-08 04:28 5.90400 117.57067 32482 ft 470 kts 90°
2026-05-08 04:28 5.90400 117.60346 32785 ft 469 kts 90°
2026-05-08 04:29 5.90403 117.63623 33098 ft 469 kts 90°
2026-05-08 04:29 5.90404 117.66897 33420 ft 468 kts 90°
2026-05-08 04:29 5.90401 117.70170 33737 ft 468 kts 90°
2026-05-08 04:29 5.90400 117.73437 34024 ft 468 kts 90°
2026-05-08 04:30 5.90397 117.76704 34302 ft 467 kts 90°
2026-05-08 04:30 5.90394 117.79961 34590 ft 466 kts 90°
2026-05-08 04:30 5.90388 117.83221 34800 ft 466 kts 90°
2026-05-08 04:30 5.90383 117.86467 34857 ft 464 kts 90°
2026-05-08 04:31 5.90380 117.92942 34865 ft 463 kts 90°
2026-05-08 04:31 5.90381 117.99410 34865 ft 463 kts 90°
2026-05-08 04:32 5.90411 118.05878 34866 ft 463 kts 86°
2026-05-08 04:32 5.91620 118.12228 34865 ft 465 kts 75°
2026-05-08 04:33 5.93280 118.18514 34860 ft 465 kts 75°
2026-05-08 04:33 5.94931 118.24800 34849 ft 465 kts 75°
2026-05-08 04:34 5.96577 118.31087 34847 ft 465 kts 75°
2026-05-08 04:34 5.98230 118.37375 34846 ft 466 kts 75°
2026-05-08 04:35 5.99870 118.43620 34844 ft 466 kts 75°
2026-05-08 04:35 6.01516 118.49916 34846 ft 466 kts 75°
2026-05-08 04:36 6.03158 118.56208 34848 ft 466 kts 75°
2026-05-08 04:36 6.04796 118.62508 34847 ft 466 kts 75°
2026-05-08 04:37 6.06428 118.68810 34848 ft 466 kts 75°
2026-05-08 04:37 6.08061 118.75119 34842 ft 467 kts 75°
2026-05-08 04:38 6.09697 118.81430 34847 ft 467 kts 75°
2026-05-08 04:38 6.11332 118.87749 34845 ft 467 kts 75°
2026-05-08 04:39 6.12954 118.94032 34842 ft 468 kts 76°
2026-05-08 04:39 6.14589 119.00360 34849 ft 468 kts 76°
2026-05-08 04:40 6.16230 119.06687 34853 ft 468 kts 76°
2026-05-08 04:40 6.17866 119.13024 34846 ft 468 kts 76°
2026-05-08 04:41 6.19501 119.19359 34849 ft 469 kts 76°
2026-05-08 04:41 6.21141 119.25704 34855 ft 469 kts 76°
2026-05-08 04:42 6.22774 119.32047 34851 ft 469 kts 76°
2026-05-08 04:42 6.24407 119.38396 34856 ft 469 kts 76°
2026-05-08 04:43 6.26034 119.44705 34855 ft 470 kts 76°
2026-05-08 04:43 6.27669 119.51056 34851 ft 470 kts 76°
2026-05-08 04:44 6.29308 119.57407 34861 ft 470 kts 76°
2026-05-08 04:44 6.30952 119.63766 34864 ft 470 kts 76°
2026-05-08 04:45 6.32589 119.70137 34864 ft 470 kts 76°
2026-05-08 04:45 6.34218 119.76500 34862 ft 470 kts 76°
2026-05-08 04:46 6.35848 119.82859 34851 ft 469 kts 76°
2026-05-08 04:46 6.37479 119.89207 34855 ft 469 kts 76°
2026-05-08 04:47 6.39105 119.95556 34856 ft 469 kts 76°
2026-05-08 04:47 6.40733 120.01901 34849 ft 469 kts 76°
2026-05-08 04:48 6.42358 120.08246 34846 ft 469 kts 76°
2026-05-08 04:48 6.43988 120.14592 34854 ft 469 kts 76°
2026-05-08 04:49 6.45615 120.20936 34854 ft 468 kts 76°
2026-05-08 04:49 6.47238 120.27275 34852 ft 468 kts 76°
2026-05-08 04:50 6.48850 120.33568 34847 ft 468 kts 76°
2026-05-08 04:50 6.50466 120.39901 34847 ft 467 kts 76°
2026-05-08 04:51 6.52083 120.46228 34849 ft 467 kts 76°
2026-05-08 04:51 6.53696 120.52553 34840 ft 467 kts 76°
2026-05-08 04:52 6.55033 120.57804 34846 ft 467 kts 76°
2026-05-08 04:52 6.56646 120.64126 34849 ft 467 kts 76°
2026-05-08 04:53 6.58251 120.70447 34845 ft 467 kts 76°
2026-05-08 04:53 6.59865 120.76767 34849 ft 466 kts 76°
2026-05-08 04:54 6.61487 120.83086 34850 ft 466 kts 76°
2026-05-08 04:54 6.63094 120.89402 34846 ft 466 kts 76°
2026-05-08 04:55 6.64692 120.95726 34849 ft 466 kts 76°
2026-05-08 04:55 6.66297 121.02048 34840 ft 466 kts 76°
2026-05-08 04:56 6.67906 121.08367 34842 ft 467 kts 76°
2026-05-08 04:56 6.69510 121.14690 34849 ft 467 kts 76°
2026-05-08 04:57 6.71097 121.20980 34848 ft 467 kts 76°
2026-05-08 04:57 6.72705 121.27306 34844 ft 467 kts 76°
2026-05-08 04:58 6.74316 121.33640 34845 ft 467 kts 76°
2026-05-08 04:58 6.75922 121.39975 34852 ft 467 kts 76°
2026-05-08 04:59 6.77522 121.46312 34855 ft 467 kts 76°
2026-05-08 04:59 6.79128 121.52651 34862 ft 467 kts 76°
2026-05-08 05:00 6.80733 121.58985 34866 ft 467 kts 76°
2026-05-08 05:00 6.82331 121.65321 34868 ft 467 kts 76°
2026-05-08 05:01 6.83931 121.71658 34870 ft 467 kts 76°
2026-05-08 05:01 6.85534 121.77995 34873 ft 467 kts 76°
2026-05-08 05:02 6.87127 121.84332 34872 ft 467 kts 76°
2026-05-08 05:02 6.88722 121.90674 34874 ft 468 kts 76°
2026-05-08 05:03 6.90326 121.97022 34877 ft 468 kts 76°
2026-05-08 05:03 6.92698 122.03045 34882 ft 469 kts 58°
2026-05-08 05:04 6.94678 122.05702 34882 ft 469 kts 47°
2026-05-08 05:04 6.97039 122.07896 34881 ft 469 kts 37°
2026-05-08 05:04 7.02620 122.11283 34868 ft 469 kts 29°
2026-05-08 05:05 7.08307 122.14492 34879 ft 469 kts 29°
2026-05-08 05:05 7.13998 122.17707 34881 ft 469 kts 30°
2026-05-08 05:06 7.19676 122.20925 34883 ft 468 kts 30°
2026-05-08 05:06 7.25361 122.24142 34879 ft 469 kts 30°
2026-05-08 05:07 7.31045 122.27352 34860 ft 469 kts 30°
2026-05-08 05:07 7.36733 122.30573 34865 ft 469 kts 30°
2026-05-08 05:08 7.42423 122.33797 34856 ft 469 kts 30°
2026-05-08 05:08 7.48116 122.37021 34862 ft 469 kts 30°
2026-05-08 05:09 7.53813 122.40245 34858 ft 470 kts 30°
2026-05-08 05:09 7.59504 122.43476 34858 ft 470 kts 30°
2026-05-08 05:10 7.68056 122.48317 34862 ft 470 kts 30°
2026-05-08 05:11 7.73716 122.51525 34857 ft 470 kts 30°
2026-05-08 05:11 7.79422 122.54765 34855 ft 471 kts 30°
2026-05-08 05:12 7.85132 122.58003 34843 ft 471 kts 30°
2026-05-08 05:12 7.90852 122.61245 34847 ft 472 kts 30°
2026-05-08 05:13 7.96578 122.64492 34842 ft 472 kts 30°
2026-05-08 05:13 8.02297 122.67752 34846 ft 472 kts 30°
2026-05-08 05:14 8.08024 122.71003 34838 ft 472 kts 30°
2026-05-08 05:14 8.13749 122.74253 34841 ft 472 kts 30°
2026-05-08 05:15 8.19478 122.77518 34833 ft 473 kts 30°
2026-05-08 05:15 8.25218 122.80784 34841 ft 473 kts 30°
2026-05-08 05:16 8.30953 122.84050 34839 ft 474 kts 29°
2026-05-08 05:16 8.36662 122.87291 34835 ft 474 kts 29°
2026-05-08 05:17 8.42411 122.90551 34838 ft 474 kts 29°
2026-05-08 05:17 8.48158 122.93826 34842 ft 474 kts 29°
2026-05-08 05:18 8.53908 122.97108 34835 ft 475 kts 29°
2026-05-08 05:18 8.59657 123.00394 34843 ft 475 kts 29°
2026-05-08 05:19 8.65416 123.03672 34835 ft 475 kts 29°
2026-05-08 05:19 8.71177 123.06951 34842 ft 475 kts 29°
2026-05-08 05:20 8.76938 123.10235 34841 ft 476 kts 28°
2026-05-08 05:20 8.82708 123.13534 34828 ft 477 kts 28°
2026-05-08 05:21 8.88489 123.16840 34828 ft 478 kts 28°
2026-05-08 05:21 8.91336 123.18467 34671 ft 475 kts 28°
2026-05-08 05:21 8.94212 123.20110 33328 ft 477 kts 29°
2026-05-08 05:21 8.97137 123.21779 31530 ft 488 kts 30°
2026-05-08 05:22 9.00089 123.23461 30349 ft 483 kts 30°
2026-05-08 05:22 9.02984 123.25111 29256 ft 473 kts 31°
2026-05-08 05:22 9.05818 123.26729 28102 ft 463 kts 31°
2026-05-08 05:22 9.08589 123.28314 26992 ft 454 kts 31°
2026-05-08 05:23 9.11311 123.29873 25920 ft 445 kts 31°
2026-05-08 05:23 9.13977 123.31401 24956 ft 437 kts 31°
2026-05-08 05:23 9.16580 123.32893 24431 ft 424 kts 31°
2026-05-08 05:23 9.19134 123.34357 23898 ft 420 kts 31°
2026-05-08 05:24 9.21661 123.35805 23361 ft 416 kts 31°
2026-05-08 05:24 9.24167 123.37240 22799 ft 411 kts 31°
2026-05-08 05:24 9.26638 123.38655 22298 ft 405 kts 31°
2026-05-08 05:24 9.29076 123.40052 21804 ft 400 kts 31°
2026-05-08 05:25 9.31487 123.41430 21311 ft 396 kts 31°
2026-05-08 05:25 9.33874 123.42794 20814 ft 392 kts 31°
2026-05-08 05:25 9.36238 123.44147 20323 ft 389 kts 31°
2026-05-08 05:25 9.38586 123.45493 19802 ft 387 kts 31°
2026-05-08 05:26 9.40922 123.46832 19290 ft 385 kts 31°
2026-05-08 05:26 9.43252 123.48168 18761 ft 384 kts 31°
2026-05-08 05:26 9.45575 123.49498 18238 ft 384 kts 31°
2026-05-08 05:26 9.47897 123.50826 17655 ft 383 kts 31°
2026-05-08 05:27 9.50208 123.52151 17113 ft 380 kts 31°
2026-05-08 05:27 9.52503 123.53469 16598 ft 378 kts 31°
2026-05-08 05:27 9.54785 123.54781 16078 ft 376 kts 31°
2026-05-08 05:27 9.57055 123.56086 15565 ft 374 kts 31°
2026-05-08 05:28 9.59317 123.57379 15052 ft 373 kts 30°
2026-05-08 05:28 9.61705 123.58408 14539 ft 373 kts 21°
2026-05-08 05:28 9.64139 123.59299 14036 ft 372 kts 21°
2026-05-08 05:28 9.66564 123.60190 13488 ft 371 kts 21°
2026-05-08 05:29 9.68983 123.61079 12971 ft 368 kts 21°
2026-05-08 05:29 9.71375 123.61957 12419 ft 365 kts 21°
2026-05-08 05:29 9.73721 123.62821 11888 ft 362 kts 21°
2026-05-08 05:29 9.76078 123.63687 11365 ft 359 kts 21°
2026-05-08 05:30 9.78409 123.64544 10847 ft 355 kts 22°
2026-05-08 05:30 9.80724 123.65396 10381 ft 351 kts 22°
2026-05-08 05:30 9.82972 123.66224 10241 ft 336 kts 22°
2026-05-08 05:30 9.85129 123.67019 10127 ft 323 kts 22°
2026-05-08 05:31 9.87200 123.67781 10009 ft 310 kts 22°
2026-05-08 05:31 9.89192 123.68514 9893 ft 299 kts 22°
2026-05-08 05:31 9.91128 123.69228 9626 ft 294 kts 22°
2026-05-08 05:31 9.93046 123.69937 9203 ft 292 kts 22°
2026-05-08 05:32 9.94761 123.70570 8693 ft 287 kts 22°
2026-05-08 05:32 9.96629 123.71260 8279 ft 286 kts 22°
2026-05-08 05:32 9.98498 123.71950 7889 ft 285 kts 22°
2026-05-08 05:32 10.00353 123.72635 7511 ft 283 kts 22°
2026-05-08 05:33 10.02199 123.73314 7133 ft 281 kts 22°
2026-05-08 05:33 10.04034 123.73990 6759 ft 280 kts 22°
2026-05-08 05:33 10.05860 123.74665 6385 ft 278 kts 22°
2026-05-08 05:33 10.07624 123.75339 6010 ft 268 kts 27°
2026-05-08 05:34 10.09153 123.76303 5663 ft 251 kts 42°
2026-05-08 05:34 10.10390 123.77510 5331 ft 237 kts 47°
2026-05-08 05:34 10.11519 123.78644 5028 ft 226 kts 47°
2026-05-08 05:34 10.12615 123.79742 4727 ft 217 kts 46°
2026-05-08 05:35 10.13683 123.80810 4438 ft 215 kts 46°
2026-05-08 05:35 10.14743 123.81872 4156 ft 213 kts 47°
2026-05-08 05:35 10.15797 123.82930 3867 ft 213 kts 46°
2026-05-08 05:35 10.16852 123.83990 3582 ft 214 kts 47°
2026-05-08 05:36 10.17908 123.85050 3292 ft 213 kts 47°
2026-05-08 05:36 10.18963 123.86107 3015 ft 214 kts 46°
2026-05-08 05:36 10.20021 123.87168 2715 ft 213 kts 47°
2026-05-08 05:36 10.21077 123.88228 2426 ft 213 kts 47°
2026-05-08 05:37 10.22133 123.89287 2147 ft 214 kts 46°
2026-05-08 05:37 10.23146 123.90300 1911 ft 193 kts 46°
2026-05-08 05:37 10.24011 123.91156 1592 ft 176 kts 46°
2026-05-08 05:37 10.24846 123.91977 1426 ft 159 kts 45°
2026-05-08 05:38 10.25588 123.92719 1243 ft 142 kts 48°
2026-05-08 05:38 10.26254 123.93436 1038 ft 137 kts 49°
2026-05-08 05:38 10.26899 123.94127 857 ft 135 kts 45°
2026-05-08 05:38 10.27602 123.94767 685 ft 135 kts 43°
2026-05-08 05:39 10.28272 123.95426 465 ft 135 kts 45°
2026-05-08 05:39 10.28912 123.96105 310 ft 132 kts 44°
2026-05-08 05:39 10.29574 123.96756 94 ft 132 kts 45°
2026-05-08 05:39 10.30193 123.97384 37 ft 114 kts 44°
2026-05-08 05:40 10.30641 123.97830 34 ft 67 kts 45°
2026-05-08 05:40 10.30910 123.98098 36 ft 47 kts 45°
2026-05-08 05:40 10.31136 123.98291 38 ft 39 kts 27°
2026-05-08 05:40 10.31331 123.98352 37 ft 18 kts 349°
2026-05-08 05:41 10.31434 123.98277 40 ft 18 kts 302°
2026-05-08 05:41 10.31388 123.98176 40 ft 16 kts 227°
2026-05-08 05:41 10.31313 123.98097 39 ft 15 kts 226°
2026-05-08 05:41 10.31241 123.98023 39 ft 14 kts 226°
2026-05-08 05:42 10.31254 123.97967 38 ft 7 kts 314°
2026-05-08 05:42 10.31285 123.97930 39 ft 6 kts 298°
2026-05-08 05:42 10.31313 123.97902 39 ft 5 kts 313°
2026-05-08 05:42 10.31315 123.97871 39 ft 4 kts 244°
2026-05-08 05:43 10.31298 123.97854 39 ft 3 kts 222°
2026-05-08 05:43 10.31282 123.97842 39 ft 4 kts 217°
2026-05-08 05:43 10.31268 123.97805 39 ft 6 kts 259°
2026-05-08 05:43 10.31263 123.97778 39 ft 1 kts 259°
2026-05-08 05:44 10.31262 123.97772 39 ft 0 kts 260°